Dewpoint
50 50 49 49 48 47 47 49 48 47 48 49 49 50 50 50 50 49 43 44 39 32 34 32 33 31 28 26 24 19 19 21 18 14 12 7 6 7 6 5 9 5 5 2 5 1 -4 4 1 1 2 4 5 6
51 51 50 50 50 49 48 48 49 48 48 49 49 50 50 50 50 49 41 44 44 38 35 34 36 33 33 31 29 25 18 19 19 18 18 16 11 11 11 4 6 4 6 5 4 2 4 5 4 6 5 3 3 4
51 51 51 50 50 50 49 48 49 48 48 49 48 49 50 51 50 48 42 41 39 34 34 31 29 33 31 31 31 25 21 23 25 27 23 19 14 12 6 2 6 3 3 3 0 2 1 4 5 2 5 3 4 3
50 50 50 50 50 50 50 49 48 48 49 48 48 49 50 50 50 47 39 40 38 33 27 25 28 27 23 23 25 27 27 29 28 25 23 19 12 12 8 3 2 -0 -1 -1 1 -3 3 3 -1 1 0 0 1 2
49 50 50 50 50 50 50 49 49 48 49 49 49 49 49 50 46 41 39 39 38 34 27 26 27 17 13 20 21 19 23 23 18 16 15 10 11 8 4 0 -3 -4 -3 -4 -3 -3 -2 -3 -1 2 -1 -1 1 2
48 49 49 49 49 49 49 49 49 48 48 48 49 49 49 46 41 35 31 37 39 36 29 22 26 9 8 11 11 13 15 15 16 15 12 9 6 8 3 -3 -6 -6 -6 -4 -4 -4 -3 -2 -1 1 0 1 1 7
46 47 47 48 48 49 49 49 49 49 48 48 49 48 47 43 37 33 31 34 38 36 28 22 20 13 5 7 10 12 15 14 13 10 8 5 2 4 2 -3 -7 -8 -8 -5 -5 -3 -4 -1 -3 -1 -0 1 4 3
43 45 46 47 47 48 48 48 48 49 48 48 49 48 45 39 37 32 31 35 36 29 26 21 15 14 6 7 8 11 12 12 9 7 5 1 -2 -1 -6 -8 -8 -9 -8 -3 -5 -4 -3 -2 -2 -2 -1 0 -0 0
42 43 44 46 46 47 47 48 48 48 48 48 46 40 35 33 30 27 33 31 25 24 21 14 14 10 6 3 6 9 10 5 6 2 -0 -1 -5 -7 -9 -9 -9 -8 -9 -8 -6 -6 -5 -6 -6 -5 -4 -3 -3 -2
41 42 44 45 45 46 47 47 48 48 48 40 35 32 27 30 34 33 26 23 19 14 13 7 5 5 4 4 5 6 7 3 -1 -3 -3 -5 -7 -9 -8 -7 -7 -7 -7 -8 -12 -10 -9 -9 -8 -8 -7 -6 -3 -1
39 41 43 44 44 45 46 47 48 45 39 33 31 24 26 35 28 23 16 17 12 8 8 4 4 1 4 3 3 3 2 1 -5 -4 -5 -8 -11 -11 -7 -7 -8 -9 -9 -9 -9 -8 -8 -7 -8 -8 -7 -5 -3 -1
38 40 42 43 44 44 46 47 43 36 34 33 28 28 26 24 20 17 13 7 8 7 3 2 0 2 3 5 3 1 -2 -0 -9 -3 -7 -11 -10 -8 -8 -11 -9 -11 -14 -13 -13 -13 -12 -9 -10 -11 -8 -6 -4 -1
37 38 41 43 43 43 44 47 42 38 34 29 25 21 22 16 13 12 6 5 2 3 1 1 -1 1 2 3 0 -0 -4 -6 -3 -8 -10 -9 -9 -8 -9 -12 -13 -14 -16 -14 -12 -11 -11 -12 -12 -12 -9 -7 -3 -2
36 39 41 42 43 43 44 44 39 36 32 26 22 15 17 12 12 9 9 6 3 4 2 2 -2 1 -0 -2 -4 -5 -7 -7 -11 -13 -12 -9 -10 -12 -15 -13 -14 -15 -17 -17 -14 -13 -15 -14 -14 -12 -6 -4 -4 -3
36 37 40 42 42 43 44 41 35 26 24 19 22 14 7 3 3 2 3 1 1 1 -0 -2 -2 0 -4 -8 -9 -8 -11 -11 -10 -10 -9 -8 -9 -15 -16 -12 -13 -14 -18 -17 -14 -15 -16 -16 -15 -12 -6 -3 -2 0
37 37 38 42 43 42 35 29 23 19 13 12 10 4 4 2 0 2 1 -2 1 -0 0 1 -4 -5 -9 -7 -10 -11 -12 -12 -9 -9 -6 -8 -13 -16 -16 -14 -14 -15 -15 -15 -13 -14 -13 -15 -16 -12 -9 -4 -0 0
36 37 39 36 35 33 30 20 17 10 9 7 3 8 6 6 3 2 2 -1 1 1 -2 -3 -9 -11 -12 -11 -13 -12 -11 -8 -7 -8 -7 -9 -11 -11 -15 -13 -13 -13 -12 -12 -11 -13 -13 -12 -13 -11 -9 -4 -1 1
35 38 38 34 30 24 19 18 12 8 2 6 3 2 3 4 1 -0 -1 -0 1 -2 -3 -7 -8 -11 -11 -15 -12 -8 -9 -7 -8 -8 -9 -9 -9 -10 -11 -12 -10 -11 -11 -10 -12 -13 -13 -13 -10 -8 -6 -4 -2 -2
37 37 37 35 29 20 14 11 12 0 1 3 3 3 2 0 -0 -1 -1 -2 -2 -3 -4 -5 -10 -8 -10 -8 -8 -7 -7 -8 -9 -10 -10 -9 -10 -12 -15 -12 -12 -12 -11 -12 -11 -12 -12 -9 -9 -8 -7 -5 -6 -6
37 35 31 29 25 16 9 8 13 5 2 2 5 2 1 -0 -3 -4 -4 -5 -4 -3 -7 -8 -8 -6 -6 -6 -6 -6 -6 -7 -9 -11 -12 -12 -12 -12 -11 -11 -12 -11 -12 -12 -12 -7 -10 -11 -11 -10 -8 -4 -5 -9
28 28 27 20 15 13 10 7 4 5 4 0 3 2 -1 0 -2 -2 -3 -3 -4 -4 -5 -5 -5 -6 -7 -8 -6 -5 -6 -7 -9 -10 -12 -13 -12 -12 -13 -14 -13 -14 -15 -16 -16 -15 -11 -14 -12 -10 -11 -11 -11 -9
27 28 21 20 11 9 6 8 5 5 2 2 2 2 -1 -2 -3 -3 -5 -5 -4 -2 -3 -5 -5 -9 -12 -12 -10 -9 -7 -8 -9 -9 -8 -9 -12 -15 -15 -15 -14 -14 -14 -13 -14 -15 -15 -15 -13 -7 -8 -14 -9 -13
27 23 18 15 7 5 1 9 3 4 -1 -2 1 -2 -3 -4 -6 -6 -6 -4 -4 -4 -5 -6 -9 -9 -5 -11 -11 -11 -12 -10 -11 -12 -13 -13 -15 -15 -14 -14 -14 -13 -13 -14 -14 -13 -13 -9 -10 -12 -9 -12 -14 -14
21 14 9 7 5 -1 5 1 4 1 1 0 0 -6 -6 -6 -7 -7 -7 -4 -4 -8 -9 -10 -8 -8 -9 -10 -7 -7 -10 -11 -11 -12 -12 -14 -15 -16 -16 -15 -15 -14 -13 -13 -13 -13 -13 -14 -9 -14 -15 -13 -13 -13
14 5 8 1 5 3 -0 0 1 1 -2 -0 -5 -8 -9 -8 -9 -10 -8 -2 -6 -6 -6 -8 -6 -5 -5 -5 -6 -8 -8 -10 -11 -13 -13 -14 -15 -15 -15 -14 -15 -15 -14 -11 -12 -13 -13 -13 -13 -12 -13 -13 -13 -12
1 2 5 4 4 4 3 -1 -0 -1 -2 -6 -9 -11 -10 -9 -11 -10 -6 -2 -5 -4 -5 -6 -7 -7 -6 -5 -6 -8 -9 -9 -10 -12 -13 -13 -14 -14 -13 -14 -14 -14 -12 -11 -10 -11 -12 -12 -12 -11 -12 -11 -4 -7
1 1 4 8 6 5 2 2 2 -3 -7 -10 -11 -13 -12 -16 -13 -6 -7 -6 -3 -2 -2 -2 -3 -4 -5 -6 -6 -8 -8 -8 -9 -12 -13 -13 -13 -13 -12 -13 -13 -13 -11 -10 -8 -9 -11 -12 -12 -12 -11 -10 -10 -10
4 5 1 2 1 1 -0 -4 -6 -7 -8 -9 -10 -15 -15 -11 -6 -3 -2 -4 -3 -2 -3 -4 -3 -3 -5 -6 -6 -8 -9 -10 -13 -13 -12 -12 -12 -11 -11 -10 -10 -3 -4 -5 -6 -6 -7 -8 -9 -9 -9 -10 -10 -11
2 5 5 -2 -7 -11 -13 -10 -9 -9 -10 -8 -8 -9 -10 -7 -6 -5 -7 -7 -5 -4 -6 -7 -9 -10 -11 -11 -9 -8 -10 -12 -14 -18 -19 -17 -14 -12 -12 -12 -11 -10 -8 -10 -2 -0 -2 -3 -3 -5 -11 -12 -13 -13
0 1 -8 -11 -13 -15 -15 -15 -13 -12 -11 -11 -12 -8 -7 -5 -6 -9 -8 -8 -6 -4 -3 -4 -8 -10 -11 -12 -12 -13 -13 -12 -11 -13 -15 -15 -13 -10 -11 -12 -11 -11 -10 -11 -12 -12 -4 -7 -11 -17 -16 -17 -16 -15
1 -3 -9 -11 -12 -12 -13 -15 -14 -13 -13 -11 -13 -8 -6 -7 -6 -8 -7 -6 -4 -7 -9 -10 -12 -11 -10 -11 -11 -12 -12 -11 -13 -13 -12 -12 -12 -12 -12 -12 -11 -10 -10 -11 -13 -14 -15 -15 -17 -19 -19 -21 -23 -13
-6 -10 -10 -14 -12 -12 -13 -13 -14 -10 -9 -6 -8 -9 -7 -6 -6 -4 -8 -7 -8 -9 -3 -3 -8 -8 -10 -8 -8 -9 -7 -10 -13 -14 -14 -10 -7 -8 -8 -9 -8 -8 -9 -11 -12 -13 -15 -18 -17 -17 -18 -20 -21 -22
-11 -11 -12 -13 -14 -13 -12 -14 -14 -12 -9 -9 -9 -14 -13 -13 -11 -4 -11 -6 -4 -4 -4 -2 -1 -3 -6 -9 -8 -9 -3 -8 -8 -2 0 1 0 -2 -8 -10 -6 -7 -8 -9 -10 -11 -13 -15 -17 -17 -17 -18 -19 -19
Lifted_Index
7 7 7 7 7 8 10 12 12 13 12 12 11 11 11 10 10 11 11 12 12 11 11 12 12 11 12 11 11 12 13 13 12 11 11 11 11 12 12 12 12 12 10 8 8 7 7 7 7 7 8 10 11 12
7 7 7 6 7 7 9 11 12 12 12 11 11 11 11 10 10 11 11 12 12 12 11 12 12 13 13 13 12 13 13 13 13 12 12 12 12 12 12 12 12 12 11 9 9 8 8 8 9 9 10 11 12 13
7 7 6 6 7 7 8 9 11 12 12 11 11 11 10 10 10 11 11 12 12 12 11 12 13 14 14 14 14 14 14 14 14 13 13 13 13 13 12 13 13 12 11 10 10 9 9 10 11 12 13 13 14 15
7 7 7 7 7 8 8 9 10 11 12 12 11 11 10 10 10 11 12 12 13 12 11 12 14 15 16 15 15 14 14 15 14 14 13 13 13 14 14 14 14 13 12 11 10 10 11 12 13 14 14 14 14 15
9 9 9 8 8 9 9 10 10 11 12 12 11 11 11 11 11 11 12 13 14 13 11 12 15 17 16 16 15 15 15 15 15 14 14 14 14 15 15 15 14 13 13 12 11 11 12 13 14 14 14 14 14 15
11 10 10 10 10 10 10 11 11 11 12 11 11 11 11 11 11 11 12 14 16 15 12 11 14 16 17 17 16 16 16 16 16 15 15 15 16 16 15 14 14 14 14 13 13 13 13 14 14 15 14 14 14 14
13 12 12 11 11 11 11 11 11 11 11 11 11 11 12 13 12 12 13 15 17 17 14 11 12 15 17 16 16 16 17 17 17 16 16 17 17 17 15 14 14 15 15 15 15 14 14 14 14 14 14 14 14 14
14 14 13 12 12 12 11 11 11 11 11 11 11 12 13 14 13 13 15 17 18 17 14 11 9 12 15 16 15 16 17 17 18 18 17 17 17 16 15 14 15 15 15 15 15 15 15 14 14 14 14 14 13 13
15 14 14 13 12 12 11 11 11 11 11 11 12 12 13 14 15 16 17 18 18 17 14 11 9 11 14 15 15 16 17 16 17 18 18 17 15 15 15 15 16 16 16 15 15 15 14 14 14 14 14 14 13 13
13 13 12 12 12 11 10 10 10 10 11 11 11 11 12 15 16 17 16 16 16 15 14 12 11 12 14 15 14 15 16 15 14 16 17 15 14 15 16 17 17 17 16 16 15 14 14 14 13 14 14 13 13 12
12 11 11 10 10 9 9 8 9 9 9 9 10 11 14 16 16 14 13 13 12 12 13 14 13 14 15 15 14 15 15 13 13 14 15 13 13 15 17 17 18 18 17 16 16 15 15 14 14 13 13 13 13 12
11 11 10 9 8 8 7 6 7 8 8 8 9 11 13 13 12 10 10 9 8 9 12 13 13 14 16 16 16 15 14 13 14 15 14 12 13 15 17 17 18 18 18 17 17 16 16 15 14 13 13 13 13 12
11 10 9 8 7 7 6 5 6 6 7 8 8 9 9 9 8 7 7 7 7 10 12 13 13 14 16 17 16 14 13 14 15 14 12 12 14 15 16 17 18 18 18 18 18 18 17 16 15 14 13 13 13 13
10 9 8 7 6 6 5 5 5 5 6 6 6 6 6 7 7 7 7 8 10 12 13 13 13 14 15 15 14 13 13 13 13 11 11 13 14 15 16 17 18 18 19 19 19 18 17 17 16 15 14 13 13 13
10 9 7 6 5 5 4 4 5 6 6 6 5 5 6 7 8 9 10 11 12 14 14 13 13 13 13 13 13 13 12 11 11 11 12 13 15 16 17 17 18 19 19 19 19 18 18 17 16 15 15 14 13 13
9 8 7 6 5 4 4 5 6 6 6 6 6 6 7 7 8 10 11 13 14 14 14 14 13 12 12 12 12 12 11 10 11 12 13 15 16 16 17 18 19 20 20 20 19 19 18 17 16 15 15 14 14 13
8 7 7 5 5 5 5 6 6 7 6 6 7 7 8 8 9 10 12 14 15 15 14 13 12 12 12 11 11 11 11 12 13 14 15 15 16 17 18 19 19 20 20 20 19 19 18 17 16 16 15 15 14 14
7 6 6 5 5 5 6 7 7 6 6 7 8 9 10 11 11 13 14 16 16 15 14 13 12 12 11 11 11 12 12 13 13 14 15 16 17 17 18 19 20 20 20 19 19 19 18 17 16 16 15 15 15 14
6 6 6 5 5 5 6 7 8 7 7 8 9 11 12 13 14 15 16 17 17 16 15 13 12 12 11 12 12 12 13 13 13 14 15 16 17 18 19 19 20 20 19 19 19 18 18 17 17 16 16 16 15 15
5 5 6 6 6 6 6 7 9 9 8 9 11 12 12 13 14 15 16 17 16 15 14 13 12 12 13 13 13 13 13 14 14 14 14 16 17 18 18 19 20 20 19 18 18 18 18 17 17 17 17 16 16 16
6 6 7 7 7 7 7 8 10 10 10 10 12 12 12 12 13 15 16 15 14 13 13 13 13 13 13 14 14 14 14 14 14 14 14 15 16 17 18 19 19 19 18 18 17 18 18 17 18 18 17 17 17 16
6 7 8 8 7 7 8 10 10 10 10 11 12 12 11 12 13 14 14 14 13 13 13 13 13 13 13 13 14 14 15 14 14 15 15 15 16 17 17 18 19 18 18 18 18 17 18 18 18 18 18 17 17 17
6 7 7 7 7 7 9 10 10 10 10 11 11 11 11 12 13 13 13 12 12 13 13 13 13 13 13 13 13 14 14 14 14 14 15 15 16 16 17 18 18 18 18 18 18 18 18 18 18 18 18 17 17 16
6 6 6 6 7 7 8 9 10 10 10 10 10 10 10 12 12 11 11 10 11 12 12 12 12 12 12 12 12 13 13 14 13 14 14 15 15 16 17 17 18 18 18 18 18 18 18 18 18 18 18 17 16 16
6 6 6 6 7 7 7 8 8 9 9 9 9 9 10 11 10 9 9 9 10 10 10 11 11 10 10 11 11 12 13 13 13 13 14 15 15 15 15 16 17 18 18 19 18 18 18 18 18 18 17 17 16 16
5 6 6 7 7 7 7 7 7 8 8 8 9 10 10 9 8 8 8 9 9 10 10 10 10 10 10 10 11 12 13 13 13 13 14 15 15 15 15 14 15 16 18 19 18 18 17 17 17 17 17 17 16 16
5 6 7 8 8 8 8 8 8 8 8 8 9 9 8 7 7 7 9 9 10 10 10 11 11 10 10 11 12 12 13 14 14 14 14 15 15 15 15 15 15 17 18 19 18 18 17 17 17 17 16 16 16 16
6 7 8 8 9 9 8 8 8 8 9 9 8 7 7 6 7 8 9 10 10 11 11 11 11 11 11 11 12 13 13 13 13 13 13 13 14 15 16 16 16 17 18 18 18 18 17 17 17 16 16 16 16 16
8 9 9 8 8 8 8 8 8 9 9 9 8 7 7 7 8 9 10 10 10 10 10 10 11 11 11 11 11 12 12 12 12 11 10 11 12 13 15 16 16 17 17 17 17 17 18 17 17 16 16 15 15 15
10 10 10 9 8 8 9 9 9 10 10 9 8 8 8 8 9 10 10 10 10 10 10 10 10 10 10 10 10 10 11 12 11 10 10 10 11 13 14 15 15 16 16 16 16 16 16 16 16 15 15 15 15 15
11 10 9 8 8 9 10 10 10 9 9 9 8 8 8 8 9 10 11 10 10 10 10 9 9 10 10 10 10 10 11 11 12 12 12 12 12 13 14 15 15 15 15 15 14 14 14 14 14 14 14 14 14 14
10 9 8 8 8 9 9 9 8 8 8 8 8 8 8 8 8 9 10 10 10 9 9 9 9 10 10 10 11 11 11 12 12 12 13 13 13 14 14 15 15 15 14 14 13 13 13 13 13 12 12 13 13 13
9 9 8 8 8 8 8 8 7 7 7 7 7 8 8 8 8 9 10 10 9 9 9 10 10 10 11 11 11 11 12 12 12 13 13 13 13 14 14 14 14 14 13 13 13 12 12 12 12 12 12 12 12 12